Location: Asheville, NC
(35.6000°N, 82.5500°W)
Time: 19:48:58
(UTC-04:00)

Vanguard 1 - Pass Details

Date: 16 March 2018
Orbit: 650 x 3833 km, 34.3° (Epoch: 19 June)

Event Time Altitude Azimuth Distance (km) Brightness Sun altitude
Rises 11:11:59 0° 259° (W) 7,372 14.2 39.4°
Reaches altitude 10° 11:16:32 10° 259° (W) 6,590 14.1 40.2°
Maximum altitude 11:40:09 86° 175° (S) 3,739 13.9 43.6°
Drops below altitude 10° 11:59:45 10° 89° (E) 5,648 14.4 46.2°
Sets 12:03:17 0° 89° (E) 6,332 14.5 46.6°
